Location: Unspecified
(48.8656°N, 0.0000°E)
Time: 13:29:57
(UTC+00:00)

Transit 2A Rocket - Pass Details

Date: 25 June 2019
Orbit: 588 x 915 km, 66.7° (Epoch: 20 July)

Event Time Altitude Azimuth Distance (km) Brightness Sun altitude
Rises 11:47:49 0° 264° (W) 3,536 8.4 64.4°
Reaches altitude 10° 11:50:57 10° 279° (W) 2,574 7.8 64.4°
Maximum altitude 11:55:35 23° 329° (NNW) 1,792 7.0 64.5°
Drops below altitude 10° 12:00:02 10° 21° (NNE) 2,457 7.5 64.5°
Sets 12:02:57 0° 36° (NE) 3,336 8.1 64.5°
